When you browse on this site, cookies collect data to enhance your experience and personalize the content and advertising you see.
Visit our Privacy Policy to learn more. By continuing to use the site, you agree to this use of cookies and data.
  • In Lithuania
  • List of Countries
  • For 7 days
  • Water Temperature
  • Satellite Maps
  • Weather Map
  • Weather Widgets
  • user-avatar
    Login

    Hourly Weather Ravda

    Today, 21 February, Thursday

    Time Temperature Precipitation Wind Pressure Humidity
    00:00 +9°C° 0 mm 3 mps 764 mmHg 67%
    01:00 +9°C° 0 mm 3 mps 764 mmHg 70%
    02:00 +8°C° 0 mm 3 mps 764 mmHg 72%
    03:00 +8°C° 0 mm 3 mps 765 mmHg 73%
    04:00 +7°C° 0 mm 3 mps 765 mmHg 75%
    05:00 +7°C° 0 mm 3 mps 765 mmHg 76%
    06:00 +7°C° 0 mm 3 mps 766 mmHg 75%
    07:00 +7°C° 0 mm 3 mps 766 mmHg 75%
    08:00 +8°C° 0 mm 3 mps 767 mmHg 73%
    09:00 +9°C° 0 mm 3 mps 767 mmHg 68%
    10:00 +9°C° 0 mm 3 mps 767 mmHg 64%
    11:00 +10°C° 0 mm 3 mps 768 mmHg 59%
    12:00 +12°C° 0 mm 2 mps 767 mmHg 56%
    13:00 +13°C° 0 mm 2 mps 767 mmHg 53%
    14:00 +13°C° 0 mm 2 mps 767 mmHg 50%
    15:00 +13°C° 0 mm 2 mps 767 mmHg 53%
    16:00 +12°C° 0 mm 2 mps 767 mmHg 56%
    17:00 +12°C° 0 mm 2 mps 767 mmHg 59%
    18:00 +10°C° 0 mm 2 mps 767 mmHg 64%
    19:00 +9°C° 0 mm 2 mps 767 mmHg 69%
    20:00 +8°C° 0 mm 2 mps 767 mmHg 75%
    21:00 +8°C° 0 mm 2 mps 767 mmHg 76%
    22:00 +8°C° 0 mm 2 mps 767 mmHg 77%
    23:00 +7°C° 0 mm 2 mps 767 mmHg 78%

    Tomorrow, 22 February, Friday

    Time Temperature Precipitation Wind Pressure Humidity
    00:00 +7°C° 0 mm 2 mps 767 mmHg 77%
    01:00 +7°C° 0 mm 2 mps 767 mmHg 76%
    02:00 +6°C° 0 mm 2 mps 767 mmHg 76%
    03:00 +6°C° 0 mm 2 mps 766 mmHg 75%
    04:00 +6°C° 0 mm 2 mps 766 mmHg 75%
    05:00 +5°C° 0 mm 3 mps 765 mmHg 74%
    06:00 +5°C° 0 mm 3 mps 765 mmHg 75%
    07:00 +5°C° 0 mm 3 mps 764 mmHg 76%
    08:00 +5°C° 0 mm 3 mps 764 mmHg 78%
    09:00 +7°C° 0 mm 3 mps 764 mmHg 73%
    10:00 +8°C° 0 mm 4 mps 763 mmHg 68%
    11:00 +10°C° 0 mm 4 mps 763 mmHg 63%
    12:00 +11°C° 0 mm 4 mps 762 mmHg 58%
    13:00 +12°C° 0 mm 4 mps 761 mmHg 53%
    14:00 +12°C° 0 mm 4 mps 761 mmHg 48%
    15:00 +11°C° 0.2 mm 4 mps 760 mmHg 55%
    16:00 +10°C° 0.2 mm 4 mps 760 mmHg 63%
    17:00 +8°C° 0.2 mm 4 mps 760 mmHg 70%
    18:00 +8°C° 0.8 mm 4 mps 760 mmHg 74%
    19:00 +7°C° 0.8 mm 4 mps 761 mmHg 79%
    20:00 +6°C° 0.8 mm 4 mps 761 mmHg 83%
    21:00 +3°C° 0.8 mm 7 mps 762 mmHg 84%
    22:00 0°C° 0.8 mm 10 mps 762 mmHg 84%
    23:00 -4°C° 0.8 mm 13 mps 763 mmHg 84%

    Day after tomorrow, 23 February, Saturday

    Time Temperature Precipitation Wind Pressure Humidity
    00:00 -5°C° 0.4 mm 13 mps 764 mmHg 83%
    01:00 -6°C° 0.4 mm 13 mps 764 mmHg 82%
    02:00 -7°C° 0.4 mm 13 mps 765 mmHg 81%
    03:00 -9°C° 0.4 mm 13 mps 766 mmHg 81%
    04:00 -9°C° 0.4 mm 13 mps 766 mmHg 82%
    05:00 -10°C° 0.4 mm 13 mps 767 mmHg 82%
    06:00 -10°C° 0.2 mm 12 mps 768 mmHg 77%
    07:00 -10°C° 0.2 mm 12 mps 769 mmHg 73%
    08:00 -10°C° 0.2 mm 12 mps 770 mmHg 68%
    09:00 -9°C° 0 mm 11 mps 770 mmHg 65%
    10:00 -8°C° 0 mm 11 mps 771 mmHg 63%
    11:00 -8°C° 0 mm 11 mps 771 mmHg 61%
    12:00 -7°C° 0 mm 11 mps 772 mmHg 59%
    13:00 -7°C° 0 mm 10 mps 772 mmHg 58%
    14:00 -5°C° 0 mm 10 mps 772 mmHg 57%
    15:00 -5°C° 0 mm 10 mps 772 mmHg 57%
    16:00 -5°C° 0 mm 9 mps 772 mmHg 57%
    17:00 -6°C° 0 mm 9 mps 772 mmHg 58%
    18:00 -6°C° 0 mm 9 mps 773 mmHg 59%
    19:00 -6°C° 0 mm 9 mps 773 mmHg 60%
    20:00 -6°C° 0 mm 9 mps 774 mmHg 61%
    21:00 -6°C° 0 mm 9 mps 774 mmHg 62%
    22:00 -6°C° 0 mm 9 mps 774 mmHg 64%
    23:00 -8°C° 0 mm 9 mps 774 mmHg 65%

    24 February, Sunday

    Time Temperature Precipitation Wind Pressure Humidity
    00:00 -8°C° 0 mm 9 mps 774 mmHg 65%
    01:00 -8°C° 0 mm 9 mps 774 mmHg 66%
    02:00 -8°C° 0 mm 9 mps 774 mmHg 66%
    03:00 -8°C° 0 mm 9 mps 774 mmHg 66%
    04:00 -8°C° 0 mm 9 mps 774 mmHg 66%
    05:00 -8°C° 0 mm 9 mps 774 mmHg 65%
    06:00 -8°C° 0 mm 9 mps 774 mmHg 65%
    07:00 -8°C° 0 mm 9 mps 775 mmHg 65%
    08:00 -8°C° 0 mm 9 mps 775 mmHg 65%
    09:00 -6°C° 0 mm 9 mps 775 mmHg 62%
    10:00 -6°C° 0 mm 9 mps 775 mmHg 59%
    11:00 -5°C° 0 mm 9 mps 775 mmHg 57%
    12:00 -5°C° 0 mm 8 mps 775 mmHg 56%
    13:00 -5°C° 0 mm 8 mps 775 mmHg 55%
    14:00 -3°C° 0 mm 7 mps 775 mmHg 54%
    15:00 -4°C° 0.1 mm 7 mps 775 mmHg 57%
    16:00 -4°C° 0.1 mm 7 mps 775 mmHg 59%
    17:00 -4°C° 0.1 mm 7 mps 775 mmHg 61%
    18:00 -4°C° 0.1 mm 7 mps 775 mmHg 63%
    19:00 -6°C° 0.1 mm 7 mps 775 mmHg 64%
    20:00 -6°C° 0.1 mm 8 mps 775 mmHg 65%
    21:00 -6°C° 0 mm 8 mps 775 mmHg 64%
    22:00 -6°C° 0 mm 8 mps 776 mmHg 64%
    23:00 -6°C° 0 mm 8 mps 776 mmHg 63%

    25 February, Monday

    Time Temperature Precipitation Wind Pressure Humidity
    00:00 -6°C° 0 mm 8 mps 776 mmHg 64%
    01:00 -6°C° 0 mm 9 mps 775 mmHg 65%
    02:00 -6°C° 0 mm 9 mps 775 mmHg 66%
    03:00 -6°C° 0 mm 9 mps 775 mmHg 65%
    04:00 -6°C° 0 mm 9 mps 775 mmHg 65%
    05:00 -6°C° 0 mm 9 mps 775 mmHg 65%
    06:00 -6°C° 0 mm 8 mps 775 mmHg 65%
    07:00 -6°C° 0 mm 8 mps 775 mmHg 66%
    08:00 -6°C° 0 mm 8 mps 775 mmHg 66%
    09:00 -5°C° 0 mm 8 mps 775 mmHg 64%
    10:00 -2°C° 0 mm 8 mps 775 mmHg 62%
    11:00 -1°C° 0 mm 7 mps 775 mmHg 60%
    12:00 0°C° 0 mm 7 mps 775 mmHg 58%
    13:00 +2°C° 0 mm 7 mps 774 mmHg 57%
    14:00 +3°C° 0 mm 7 mps 774 mmHg 55%
    15:00 +2°C° 0 mm 7 mps 773 mmHg 55%
    16:00 +2°C° 0 mm 7 mps 773 mmHg 55%
    17:00 +2°C° 0 mm 7 mps 772 mmHg 55%
    18:00 0°C° 0 mm 7 mps 772 mmHg 57%
    19:00 -1°C° 0 mm 7 mps 772 mmHg 59%
    20:00 -2°C° 0 mm 7 mps 772 mmHg 62%
    21:00 -2°C° 0 mm 6 mps 772 mmHg 63%
    22:00 -3°C° 0 mm 6 mps 771 mmHg 64%
    23:00 -3°C° 0 mm 6 mps 771 mmHg 65%

    26 February, Tuesday

    Time Temperature Precipitation Wind Pressure Humidity
    00:00 -3°C° 0 mm 6 mps 770 mmHg 67%
    01:00 -3°C° 0 mm 6 mps 770 mmHg 69%
    02:00 -3°C° 0 mm 6 mps 770 mmHg 71%
    03:00 -3°C° 0 mm 6 mps 769 mmHg 71%
    04:00 -3°C° 0 mm 6 mps 768 mmHg 70%
    05:00 -3°C° 0 mm 6 mps 768 mmHg 70%
    06:00 -3°C° 0 mm 6 mps 768 mmHg 68%
    07:00 -2°C° 0 mm 6 mps 767 mmHg 66%
    08:00 -2°C° 0 mm 7 mps 767 mmHg 64%
    09:00 0°C° 0 mm 7 mps 767 mmHg 60%
    10:00 +3°C° 0 mm 7 mps 767 mmHg 56%
    11:00 +5°C° 0 mm 8 mps 766 mmHg 52%
    12:00 +6°C° 0 mm 7 mps 766 mmHg 50%
    13:00 +6°C° 0 mm 7 mps 765 mmHg 47%
    14:00 +8°C° 0 mm 7 mps 765 mmHg 45%
    15:00 +7°C° 0 mm 6 mps 764 mmHg 49%
    16:00 +7°C° 0 mm 5 mps 764 mmHg 53%
    17:00 +6°C° 0 mm 4 mps 763 mmHg 57%
    18:00 +5°C° 0 mm 4 mps 763 mmHg 61%
    19:00 +4°C° 0 mm 4 mps 763 mmHg 64%
    20:00 +3°C° 0 mm 4 mps 762 mmHg 68%
    21:00 +3°C° 0 mm 4 mps 762 mmHg 68%
    22:00 +2°C° 0 mm 5 mps 761 mmHg 69%
    23:00 +1°C° 0 mm 5 mps 760 mmHg 69%
    Show more